GFSSE_con_mucape_000.txt.gz
CAPE
623 664 810 985 1310 2535 2483 2540 3037 3037 2956 3001 2941 2522 3039 2962 2993 2997 3403 3724 3262 3364 2796 2358 2426 2529 2739 2759 2582 2378 2190 2084 2085 2072 2516 2032 1438 1080 1033 1110 945 713 1214
826 746 1496 1710 2176 2852 2828 2929 2938 2943 2819 3015 2942 2895 2895 2986 2399 2470 2819 3174 3138 2762 2264 2315 2375 2352 2630 2680 2563 2471 2462 2431 2284 2097 2116 1857 1622 1275 1539 1251 864 1277 1234
771 862 1123 2492 2776 2631 2868 2719 2675 2612 2809 3158 3133 3082 2977 2851 2681 2666 2970 2871 2806 2393 2310 2360 2364 2354 2309 2402 2484 2531 2555 2334 2051 2208 1962 1640 1388 1443 1745 1423 835 1216 1110
963 972 1255 2033 2449 2788 2877 3107 2989 2481 2676 3243 3229 3083 3139 2952 2838 2771 2419 2535 2555 2555 2377 2234 2315 2435 2229 2192 2202 2128 2094 2292 2356 1974 1779 1051 1030 1411 1233 1066 690 853 492
1267 1355 1755 2479 2831 2894 2855 3107 2782 2771 2968 2931 2989 3073 2966 2787 2838 2434 2363 2434 2395 2380 2413 2355 2327 2289 2197 2159 2131 2021 1904 1975 2025 1539 1278 1073 1291 1073 1405 1252 650 1151 596
1841 1885 1609 2306 2903 2992 3314 2772 2463 2489 3076 3304 3326 3023 2717 2352 2407 2430 2431 2460 2427 2365 2312 2324 2307 2187 2074 2132 2178 2016 1910 1905 1351 1680 1506 1156 1537 1500 1406 1278 548 1021 785
1672 2024 1933 2671 3089 3011 3276 2740 2806 2558 2541 3087 2889 2402 2312 2295 2403 2363 2249 2255 2347 2373 2310 2333 2352 2275 2224 2152 2145 2067 1907 1643 1745 1626 1549 1207 1606 1899 1286 1516 846 418 800
1660 1883 2117 2294 2837 3172 2798 2697 3287 3092 2774 3032 2816 2357 2314 2400 2418 2368 2301 2412 2405 2262 2174 2142 2157 2139 2263 2348 2231 2031 2030 1784 1539 1508 1625 1562 2143 1708 1413 977 1352 375 272
1514 1650 2002 2014 2404 2669 2685 2707 3065 3084 2697 2859 2622 2454 2510 2608 2569 2474 2462 2378 2279 2122 2087 2114 2173 2109 2169 2354 2304 2126 1819 1962 1879 1598 1512 1755 2369 1972 1460 1260 1307 602 711
1449 1613 1981 2074 1893 2008 1973 2619 2384 2579 2560 2346 2465 2569 2694 2672 2654 2643 2594 2491 2451 2285 2403 2492 2702 2215 2129 2019 1825 1807 1862 1791 1618 1729 1570 2003 2653 1861 1574 1548 981 1112 506
1370 1632 1885 2006 2096 2086 1966 2104 2372 2358 2285 2128 2234 2293 2340 1657 2182 2153 2096 2597 2413 2390 2477 2497 2532 2583 2444 2205 1848 1632 1550 1590 1618 1530 2197 1724 2127 1757 1825 1547 1237 1205 872
1480 1455 1477 1624 1966 2147 1812 2142 1947 1729 1486 1491 1633 2097 1944 2062 2265 2408 2568 2659 2606 2641 2630 2760 2405 2414 1850 1588 1796 1472 1392 1368 1418 1571 1775 2156 1842 1584 1910 1682 1656 825 1321
1386 1422 1526 1793 1984 1849 1763 1973 1897 1941 1835 1981 2351 2459 2285 2272 2315 2249 1912 2067 2050 2343 1779 2023 1833 1793 1281 1362 1365 1224 994 1248 1072 1474 1577 1902 2077 1592 1693 1673 1878 1471 684
1297 1393 1637 2007 2262 2228 2018 1876 1833 1779 1909 1849 1965 2301 2830 2349 2066 2020 1854 1826 1914 1710 1684 1700 1636 1690 1677 1300 1466 1398 1142 1112 1052 1288 1646 2104 2106 1627 1508 1881 1771 1305 1098
1339 1505 1632 2075 2271 2357 2448 1934 1770 1719 1693 1631 1783 1982 2249 2036 2008 1972 2147 2024 1656 1700 1945 2098 1908 1812 1738 1193 1154 1222 1036 982 1084 1247 1395 2314 2434 2065 1534 1872 1675 1365 876
1179 1316 1770 2115 2355 2460 2877 2490 2463 2089 1960 1886 1745 1785 2196 2372 2038 1866 2041 1783 1786 1693 2096 2046 2126 1958 1813 1564 1256 1209 1086 1019 1140 1295 1199 1613 2265 2589 2085 1660 1667 1576 1124
1717 1665 1854 2261 2294 2400 2424 2601 2568 2129 1856 1775 1712 1951 2158 2502 2271 2474 1934 1805 1967 2039 1688 1790 2017 1920 1838 1622 1488 1443 1333 1212 1228 1446 1549 1232 1490 2384 2630 2182 2477 2448 1999
2218 2498 2525 2454 2175 2574 2768 2878 2470 2191 1969 1657 1407 1370 1786 2212 2461 2722 1748 1751 1748 2006 1555 1561 2153 1731 1964 1549 1526 1401 1240 1108 1144 1301 1325 1228 1102 872 2101 2679 2776 2712 1985
2086 2460 2905 2818 2459 2236 2453 2469 2298 2185 2125 1992 1804 2090 2129 2540 2587 2802 2660 1574 2095 1581 1507 1328 1590 1677 2169 1939 1444 1222 1237 1154 1086 857 917 1015 1206 1111 908 2076 2430 2685 1868
2711 2936 2945 2758 2808 2863 2666 2840 2990 3081 3407 3351 2890 2248 2262 2417 2145 2348 1914 1937 2014 1658 1377 1421 1912 1662 1579 1476 1271 1007 941 963 938 863 796 870 1015 939 983 950 1912 1673 2524
2475 2674 2873 2973 2996 2877 2856 2722 2630 2588 2477 2464 2336 2318 2442 2360 2475 2654 2618 2226 2673 2493 2004 2053 2155 1688 1425 1320 1269 1200 982 905 955 932 763 787 813 753 814 910 1024 1205 1478
2535 2697 2938 3123 3240 3296 2906 2834 2647 2362 1841 1988 2358 2249 1954 1658 1697 1649 1710 1430 1454 1426 1686 1890 2270 1849 1200 1714 1232 1063 591 658 665 854 826 620 720 728 654 816 1036 1263 1181
2415 2847 2983 3181 3181 3442 3164 2306 1570 999 1430 825 853 672 1043 1213 1069 1128 1166 1250 1336 1354 1243 1450 1714 1549 1417 1048 1297 1227 494 490 354 491 882 712 716 696 708 657 744 1061 1372
2342 2742 3656 3851 3501 2460 1503 925 982 228 340 515 443 370 752 547 791 792 946 983 1248 1135 1183 1083 1178 1375 1465 1263 1466 1330 1138 694 595 392 631 651 750 679 759 680 568 818 1252
2755 3121 2895 2355 1731 1180 1053 597 182 217 63 179 155 201 394 381 477 534 754 724 956 912 825 819 998 1181 1204 1175 1256 1286 988 921 1277 1144 670 466 668 589 535 748 654 535 733
2275 1960 1288 1374 1136 901 432 358 385 312 169 54 89 183 46 86 161 283 309 392 553 598 631 718 819 1009 1415 1395 1354 1413 1427 1070 938 1169 1084 517 375 363 610 447 526 593 559

GFSSE_con_mucape_006.txt.gz
CAPE
234 573 1478 1778 1680 1858 2090 2294 2358 2469 2339 2391 2567 2792 2804 3014 3109 3105 3141 3217 3177 3159 2993 2679 2818 2681 2451 2375 2129 2040 1983 1967 2148 1826 1529 1187 1017 1101 1225 972 829 828 1285
324 556 2075 2319 1830 1865 1961 2106 2195 2469 2575 2826 2901 2848 2981 3239 3486 3299 3261 3029 2921 2897 2703 2594 2572 2581 2357 2211 2186 2159 2147 1969 1991 2012 1668 1220 1275 1586 1261 1109 1433 1101 986
407 522 1221 2512 2348 2101 2214 2250 2371 2313 2792 2919 2818 2589 2638 2781 3187 3086 3030 3061 2963 2659 2300 2256 2226 2295 2313 2242 2343 2404 1739 1780 1725 1558 1333 1450 1339 1623 1271 1132 1360 1245 905
447 517 856 2540 2611 2604 2345 2266 2435 2459 2580 2858 2763 2680 2785 2871 2908 2818 2761 2598 2550 2565 2200 2283 2193 2014 1890 1916 1791 1750 1694 1480 1332 1004 1076 899 955 1505 1008 1641 1155 867 1054
1362 1350 1859 2752 2678 2531 2577 2895 2957 2853 2931 2944 2855 2652 2618 2440 2015 2166 2141 2236 2323 2396 2280 2174 2048 1902 1803 1735 1577 1614 1577 1562 1389 919 1041 1137 1132 1259 904 623 687 247 573
1448 1248 2239 2712 2605 2799 2699 2769 2986 2880 2885 2893 2738 2699 2450 2291 2174 2100 2179 2217 2244 2278 2246 2189 2011 1863 1761 1653 1612 1551 1606 1432 700 387 879 1526 1393 1516 1052 683 1147 358 744
1280 1333 1923 3266 3294 3092 2987 3025 3088 2892 2743 2683 2513 2105 2510 2483 2085 2136 2205 2150 2095 2070 2006 1901 1811 1687 1576 1689 1751 1652 1472 1423 649 428 928 842 1446 2188 1546 796 1115 731 945
1226 1256 1530 2793 2716 2842 2875 2742 3076 2824 2664 2613 2510 2522 2573 2207 2056 1963 1984 2060 1963 1760 1739 1834 1805 1634 1581 1631 1572 1844 1875 1462 1034 1293 1119 1281 1636 2084 1547 581 733 957 1025
1472 1652 1830 1731 2294 2599 3128 2713 2867 2894 2624 2386 2435 2322 2220 2106 2052 2078 2074 1991 1703 1816 1821 1937 2104 1911 1950 1963 2122 2345 2120 1747 1555 1628 1083 1182 2340 2192 1224 1109 351 253 441
1553 1961 2316 2147 1961 2225 2278 3075 2740 2940 2657 2354 2039 1987 2038 2168 2186 2191 2107 2289 2027 1863 1965 2107 2347 2307 2380 2482 2520 2599 2276 1799 1487 1038 1227 853 2139 2032 1392 1187 814 581 149
1561 1576 1585 2027 2489 2748 2247 2002 2939 2485 2589 2185 2012 2095 2309 1736 1425 1009 304 880 2174 2090 2021 2157 2575 2835 2718 2704 2826 2796 2106 1457 1560 1710 1136 1396 2532 2057 1493 1303 971 656 967
1546 1611 1689 1802 2142 2315 1553 2304 2576 2195 1974 2080 2009 2521 2213 2176 2186 1265 1029 973 2193 2192 2451 2599 2558 2931 2119 1554 2090 2744 2049 1458 1824 1529 1196 1112 2105 2239 1467 1769 1654 1155 723
1632 1385 1429 2631 2782 2450 2077 2301 2475 2210 1931 2066 2993 2992 2923 2831 910 2389 1242 1615 2738 2971 2266 2938 2557 2345 1823 1685 1259 1114 1449 1339 800 1407 1539 1731 1822 2028 1900 1734 1685 1428 1290
1047 1538 1874 1767 2566 2812 1649 2101 2236 2207 2330 1313 2342 3252 3405 2650 2887 2678 2342 2406 2881 1995 2949 2599 2130 2616 2188 2099 1426 1269 967 814 756 1440 1600 2157 2461 2428 1637 1805 1884 1583 1145
1127 1265 2113 2568 2869 3229 2386 3270 1674 1705 1486 2006 2587 2508 2621 3105 2958 2722 2853 2634 2747 2718 2023 2360 2592 2376 2149 2038 1895 1815 1122 1106 1020 1131 1594 2532 2442 2596 2215 2210 1914 1985 1569
1168 1231 1773 2524 3421 2988 3378 3664 3700 1786 1724 2404 2563 1922 1923 2274 2848 2690 2340 2597 2807 2062 2923 2382 2851 2469 2249 2164 1813 1758 1548 1494 1461 1662 1492 1814 2149 2373 2426 2346 2408 2335 2128
1073 1437 2063 2322 2941 3360 3431 3774 3453 3051 1491 2415 2052 2385 2843 2873 3358 2758 2581 2351 2243 2635 2886 2725 2535 2234 2198 1807 1930 1286 1772 1592 1362 1656 1520 1690 1455 2294 2505 2413 2554 3066 2861
1321 2131 1912 1420 2576 3068 3483 3396 3121 2640 2476 2908 3114 2207 2614 2955 3033 2843 2537 2086 2170 2484 2111 2598 2415 1955 1989 1851 2030 2023 1806 1638 1388 1488 1598 1353 1637 1620 2290 2473 2517 2675 2951
2509 2657 2222 2361 2834 3274 3359 3581 3257 3255 3069 3128 2644 3155 2651 3056 2616 2649 2539 2626 2671 2047 1914 1849 1830 1795 1590 1277 1499 1590 1670 1724 987 764 1204 1253 1126 1306 1613 1961 1985 2048 2287
2200 2207 2835 2578 3572 3143 3721 3385 3217 3025 2728 3025 3252 2838 3122 3060 2934 2257 2229 2305 1937 2052 2034 1698 1591 1614 1652 1742 1471 1220 1224 1399 1192 836 589 896 1086 1038 992 1648 1642 1466 2456
2119 3423 2863 3155 4129 4307 3601 3059 3403 2957 3658 2943 3465 3163 3132 3097 2351 2429 2506 2493 2349 2012 2150 2163 2045 1786 1357 1767 1288 877 1212 1165 1261 1325 1067 752 618 897 910 1157 1852 1412 1633
2688 3372 3828 4332 4411 4232 4382 4214 3687 3395 3417 3278 2782 3342 2719 2168 2378 2731 2787 2044 1727 1646 1685 1726 1923 1395 1315 1174 892 555 672 708 965 966 1132 835 782 861 704 884 1242 1649 1558
2237 3063 3632 4331 4243 4007 4188 4413 3956 3395 3328 2525 2564 1686 1654 1253 1505 2114 2060 1927 1938 1875 1004 1297 1326 938 965 1327 984 596 526 414 457 750 1073 1060 845 708 773 841 1010 1056 1670
2262 2772 3791 4279 4650 4461 3824 2842 2878 1591 907 2015 1709 1626 1096 1294 1383 1261 1595 1757 1790 1474 1405 1308 922 989 1152 916 1013 1151 645 509 551 386 679 931 1094 907 1029 870 807 1116 1098
2007 2305 3482 4426 4190 3423 2774 1408 1503 1526 771 845 953 1127 1314 1427 1637 1185 1552 1706 1386 1251 1136 1120 1088 828 843 854 769 828 832 612 676 643 441 453 527 1118 716 610 275 434 1006
1637 2145 3276 3681 3281 2782 2097 1622 843 331 740 644 1178 921 838 919 949 1624 1114 1232 1358 1123 1028 773 1130 943 850 869 788 637 583 511 539 343 335 427 554 550 934 445 345 376 416

GFSSE_con_mucape_009.txt.gz
CAPE
350 695 1399 1087 1684 2117 2162 1984 2548 2567 2423 2566 2587 2657 2715 2986 3182 3260 3357 3406 3398 3286 3400 2663 2568 2438 2242 2160 2181 2178 2016 2166 2059 1722 1266 1152 1251 1514 1020 923 1210 908 880
651 1355 2131 1994 1786 1808 2057 2435 2403 2552 2643 2653 2738 2973 3043 3090 3377 3319 3227 3280 3244 3309 2691 2551 2510 2375 2297 2320 2288 2171 2031 1942 1748 1525 1247 1216 1453 1363 1100 946 1149 802 860
776 1304 1401 2085 2167 2310 2440 2222 1990 2163 2640 2727 2787 3078 3189 3121 3151 3300 3233 3188 3037 2892 2244 2254 2334 2339 2210 2152 2166 1929 1530 1778 1187 1239 1116 1085 1413 1464 1275 1254 1166 813 1194
802 1314 1570 2113 2240 2175 2338 2239 2651 2516 2617 2802 2896 2942 3096 3151 3130 2940 2309 2343 2849 2562 2149 2192 2156 2047 2024 1890 1930 2158 2176 1539 1159 1288 718 994 994 1218 1325 1186 908 1134 987
678 1519 1795 2726 2572 2488 2438 2593 3038 2774 2994 2860 2940 3055 2905 2766 2356 2024 2169 2160 2217 2506 2147 2077 2060 2008 1955 1763 1870 1828 1933 1513 1314 1041 810 715 744 980 974 790 390 706 892
1008 1550 2676 3033 3014 2964 3051 3115 3254 3124 2938 2919 2834 2624 2562 2511 2111 2006 2048 2105 2177 2172 2140 2074 1978 1935 1870 1756 1774 1855 1879 1475 509 185 589 850 864 1109 604 815 599 554 1022
1236 1660 2150 2913 2941 2893 3132 3160 3108 2978 2878 2930 2703 2501 2692 2796 2173 2208 2069 1987 1905 1903 1850 1776 1728 1671 1728 1717 1771 1843 1695 1669 879 869 976 810 1128 1824 990 1256 645 1117 959
1296 1997 2258 3031 3181 3241 2814 2559 3158 2821 2638 2747 2723 2992 2801 2823 2577 2398 1924 1874 1768 1605 1617 1735 1832 1724 1704 1815 1968 2000 1988 1475 1410 1249 1244 992 1432 2224 1116 817 1049 865 1152
1188 1623 2153 2303 2345 2823 3066 2926 2704 2887 2671 2879 2864 2790 2759 2308 2044 2009 1958 1921 1639 1609 1743 1871 2380 2369 2398 2569 2522 2230 2267 1932 1493 1160 1337 1089 1973 2178 950 624 1126 1045 1066
1208 1616 1698 2053 2227 2481 2514 2873 2364 2759 2395 2784 2652 2310 2580 2154 1838 1616 1371 1850 2045 1939 1891 2177 2679 2643 3020 2944 2726 2175 1966 2087 1601 1056 722 572 1631 2270 1255 840 296 384 1030
1403 1316 1351 1305 1750 2118 2378 2482 3038 2639 2851 2681 2365 2488 2361 1604 726 170 933 920 1544 2305 2220 2455 2488 2262 2934 2359 2662 2244 2120 1560 1346 1297 873 633 1973 2352 1479 1338 786 456 473
1398 1557 1378 1413 1509 1546 1673 2225 2204 2078 2044 1849 1784 1682 1521 1230 1076 942 829 834 1133 2522 2808 2922 2413 2567 2652 1681 1411 2199 1763 1761 1357 1071 885 1659 2537 2269 1838 1524 969 745 1037
1143 1078 1169 1674 1552 1656 1475 1615 1916 1993 1781 1691 1662 1575 1486 1460 1023 1399 1179 1326 1433 1945 1781 1955 2239 1869 1894 1641 1544 910 1281 1784 1111 1186 913 1896 2636 2542 1804 1840 1335 1071 822
1144 1289 1382 1758 1782 1626 1537 1669 1842 1613 1510 1455 1540 1791 1748 1491 1403 1552 1346 1420 1465 1414 1663 1216 994 1629 1508 1203 1084 1047 738 526 799 1220 1378 2122 2356 2868 2004 1846 1716 1465 1246
1124 1452 1540 1703 2003 1398 1299 1823 1652 1634 1769 1493 1702 1768 1832 1640 1516 1265 1493 975 1469 1507 1142 1500 1592 1249 1412 1522 1453 1275 859 587 405 1294 1112 2179 2236 2338 2443 2082 1828 1831 1422
904 1463 1660 1626 2100 1985 2124 2036 2179 1897 1085 1399 1756 1705 1866 1910 1697 1645 1229 1278 1619 1320 1624 1394 1311 1308 1201 1304 1420 1524 1329 997 583 662 1080 1461 2091 2323 2606 2249 2204 2211 1993
676 1763 1828 1942 2112 1827 1986 2199 2433 2194 1812 1079 1344 1443 1017 1072 1587 1552 1233 1308 1158 1192 1553 1672 1705 1680 1528 1440 1332 1148 1192 1196 879 568 850 1223 1572 2409 2085 2266 2781 2652 2748
468 1118 1909 2199 2204 2014 2125 2434 2390 2152 1776 1752 1723 1401 1495 1809 1283 1645 1299 1221 1268 1299 1262 1071 1106 1152 979 947 964 934 1069 1063 1020 833 923 1166 1054 939 1779 1894 2036 2456 2848
1171 1164 1137 1796 2283 2182 2419 2387 2277 2256 2115 1970 1665 2078 1926 2144 1816 1514 1560 1659 1807 1537 1374 1217 1408 1141 863 843 992 1024 859 926 1001 1121 832 957 957 1174 1014 1778 2066 1924 2242
1438 1187 1525 1454 2069 2293 1965 2201 2431 2063 1828 1738 2017 1818 1577 1659 1621 1393 1313 1231 1315 1249 1181 1114 1028 905 1048 905 1172 831 675 639 746 799 849 765 706 829 1338 1206 1372 1179 1869
1313 1390 1537 1851 2400 1914 2099 1741 1972 1330 1811 1742 1788 1991 1827 1680 1656 1658 1334 1500 1508 1300 1179 1136 1020 1083 835 763 609 271 418 424 615 789 809 1037 856 637 771 984 1181 1135 1020
1316 1920 1781 2220 2424 2138 2254 2229 2328 2287 1973 2054 1956 2185 1733 1642 1608 1749 1509 886 731 734 484 430 435 386 555 631 554 346 185 130 329 529 600 581 772 634 483 676 969 1303 1134
1883 2007 2158 2450 2363 2487 1982 2670 2376 2070 2100 1112 874 1449 1077 694 504 425 420 446 645 585 389 415 427 368 382 418 366 296 143 112 102 78 182 283 614 669 543 484 504 1064 1151
1972 2365 2692 2398 2278 2510 2490 2472 1898 1383 132 453 330 177 91 421 210 199 250 575 424 396 419 336 396 315 303 251 262 348 173 144 63 64 139 170 257 287 494 605 531 322 217
1958 2120 2731 2329 2735 2503 2457 749 138 2 0 65 37 0 0 1 209 382 550 305 238 171 178 287 78 216 208 201 193 184 183 161 136 78 36 32 9 107 265 353 240 123 41
1677 2368 2735 2989 2558 2250 1334 32 0 0 0 0 9 0 24 1 126 501 188 80 203 240 223 83 178 111 42 72 71 52 72 84 95 88 31 6 32 41 58 231 228 151 87

GFSSE_con_mucape_015.txt.gz
CAPE
247 431 815 1053 850 999 912 874 942 1427 1872 2373 2622 2790 2736 2837 3053 3090 3214 2844 2708 2599 2393 2285 2039 2052 2097 2125 2019 2034 1915 1840 1428 1510 1739 1783 1229 1131 1225 1269 724 505 656
233 390 1098 1151 1017 924 1259 1410 1679 2138 2196 2493 2673 2942 2889 2844 2721 3073 2962 2655 2563 2518 2361 2249 2028 2280 2165 2025 1867 1808 1671 1651 1441 1567 1727 1594 1447 1177 1038 1036 832 853 710
381 536 1242 1675 1571 1638 1962 2095 1983 2203 2231 2756 3061 2777 2846 2562 2467 2512 2562 2481 2362 2226 2286 2307 2139 1975 1974 2002 1917 1533 1522 1462 1614 1445 1643 1290 1134 1503 1361 808 946 935 1083
982 1131 1413 1937 2235 1752 2269 2501 2564 2432 2213 2948 2893 2997 2792 2424 2473 2312 2376 2308 2159 2186 2167 2045 1974 1912 1888 1876 1866 1779 1341 1403 1520 1354 1099 1295 1009 1377 1143 605 954 710 1034
1318 1537 1712 2238 2322 1939 1954 2549 2510 2397 2204 2407 2498 2373 2396 2160 2016 2111 2041 1947 2025 2069 2083 2014 1944 1905 1852 1739 1761 1925 1894 1486 1417 988 715 973 812 1162 750 802 1068 498 289
1194 1391 2168 2214 2027 2103 2184 2398 2130 2099 2259 2604 2706 2316 2018 2020 2152 2073 1957 2069 2128 2081 2004 1944 1899 1862 1846 1820 1855 1788 1846 867 649 557 740 812 734 1053 628 436 969 653 636
1247 1558 1784 2671 2599 2518 2066 2277 2130 2095 2236 2417 2288 2003 2008 1923 2024 2008 2047 2023 1973 1955 1922 1861 1767 1688 1721 1712 1789 1835 1829 1683 813 622 602 1058 755 1028 733 756 842 1200 990
1529 1681 1737 2249 2571 2621 2081 1955 2063 1854 1882 2022 2236 2317 2246 2134 2162 2087 1966 1886 1828 1762 1754 1654 1798 1822 1716 1739 1833 1882 1858 1785 1697 985 746 779 1172 1351 1441 995 621 886 916
1664 1660 1597 1634 1817 2372 2892 1943 1964 1995 1972 2046 2444 2383 2280 2168 2057 2010 1963 1921 1799 1709 1672 1848 2051 2288 2310 2267 2146 1945 2019 2058 1438 1096 1094 741 1557 1388 1196 1151 912 1018 953
1725 1874 1845 1719 1836 2002 2230 2281 2003 1976 1776 2190 2341 2309 2262 2031 1865 1977 1866 1840 1892 1941 2015 2102 1853 2213 2331 2353 2021 2060 1814 1884 1460 960 841 640 1697 1773 1248 913 1083 1118 815
1877 1914 1959 1935 2015 2146 2176 1954 2389 2018 2188 2208 2133 2273 2519 1925 1746 1343 1304 1450 1577 1887 1759 1732 1979 2296 2228 2178 2264 1902 1862 1546 1308 975 907 779 1512 1957 1348 1008 1039 883 1290
1678 1854 1876 2037 1998 2152 2202 1972 2069 1686 1988 2010 1976 1987 2044 1736 1416 1017 946 1247 1539 1384 1605 2290 1951 2197 1825 1356 1324 1517 1197 1564 1322 907 919 595 1033 1755 1589 1020 765 697 1201
1301 1420 1788 1920 1854 1950 2101 2063 2121 1945 1803 1838 1680 1620 1752 1250 1106 1211 1292 1073 1126 1276 1327 1440 1467 1485 1318 1079 1017 974 955 694 1383 1217 1244 1243 817 1890 1974 1526 957 521 537
1020 1057 1343 1665 1805 1815 2079 2043 1989 1956 1896 1598 1413 1270 1197 1210 1297 1076 961 1129 1237 1226 1163 1060 968 994 1135 930 919 931 951 899 522 647 1049 1733 1610 1668 2142 1901 1642 1021 661
1083 1058 994 1247 1506 1602 1629 1878 1821 1783 1734 1575 1357 1133 1299 1300 1283 1185 1132 1218 1242 1232 1165 1279 1190 1114 1054 1104 1078 1109 1138 1087 1000 938 918 1482 2105 1910 2417 1985 1957 1563 1079
1125 1103 1058 1198 1353 1329 1508 1459 1446 1451 1512 1547 1324 1325 1190 1319 1493 1409 1166 1090 973 1132 1115 1261 1144 1275 1198 1049 909 841 871 842 938 893 895 952 2298 1697 2122 2468 2189 1980 1435
1135 1081 1255 1352 1393 1391 1604 1441 1308 1417 1576 1524 1593 1461 1533 1411 1475 1501 1337 1013 1001 889 945 1091 963 841 927 913 916 781 654 625 658 775 872 904 943 1596 1710 1717 1691 1818 2302
955 1099 1357 1648 1422 1315 1570 1350 1475 1616 1317 1280 1200 1212 1462 1386 1363 1444 1189 918 885 894 1001 1003 990 988 879 686 561 523 553 614 591 647 732 793 722 977 1056 1702 1574 1678 1891
833 1170 1354 1503 1445 1362 1288 1516 1469 1567 1472 1395 1213 1201 1184 1237 1194 1171 924 859 904 809 795 830 907 763 548 561 622 520 397 322 338 349 247 394 548 848 939 1187 1403 1422 1402
830 1095 1280 1467 1444 1335 1344 1448 1598 1659 1564 1591 1539 1410 1318 1232 1220 1035 935 831 743 680 549 296 303 455 592 785 294 196 93 77 80 116 113 231 404 510 564 765 791 802 1754
920 1083 1145 1244 1273 1203 1486 1648 1613 1693 1803 1645 1380 1353 1304 1255 1166 986 564 659 882 350 187 180 171 273 348 346 263 108 39 11 17 20 60 67 56 214 444 572 615 649 617
586 950 1120 1203 1286 1410 1534 1511 1424 1323 1499 1359 1165 1323 1511 1269 1086 761 556 925 388 270 119 138 112 88 180 278 200 58 0 0 62 0 10 3 0 8 129 339 404 480 615
288 409 703 1129 1288 1589 1649 1598 1462 1704 1801 1510 1453 1402 1501 1191 1126 1029 782 328 152 38 41 80 78 43 11 175 147 189 6 0 0 0 7 0 0 0 0 36 427 407 433
413 405 509 881 1142 1526 1734 1660 1450 1660 1270 915 743 810 1111 608 18 17 4 43 28 0 3 5 6 15 11 7 154 225 191 181 7 0 0 0 0 0 0 0 0 46 315
446 691 794 1142 1440 1558 1810 1554 1655 1698 947 556 394 188 6 0 0 0 26 46 27 0 0 0 0 0 3 20 17 57 48 37 125 0 0 0 0 0 0 0 0 0 0
604 828 1128 1264 1558 1629 1625 1752 1641 1796 1535 413 91 0 0 0 0 0 103 55 0 0 0 0 0 0 0 3 4 9 0 0 0 0 1 0 0 0 0 0 0 0 0

GFSSE_con_mucape_021.txt.gz
CAPE
215 352 491 546 561 449 478 655 850 1062 998 1106 1819 1959 1840 2274 2441 2442 2628 2503 2427 2219 1984 1969 2088 2096 2091 2017 2012 1975 1783 1605 1822 1935 1708 1537 1398 1040 912 724 631 455 1127
289 505 934 582 504 517 505 623 963 1079 1425 2017 1898 1953 2036 1975 2244 2523 2446 2422 2309 2156 1894 2031 2112 2040 1912 1829 1815 1709 1513 1616 1773 1731 1543 1371 1079 1250 1103 861 337 906 1291
302 580 796 1193 1181 1195 1057 1084 861 1124 1545 2112 2171 2324 1895 1904 2259 2368 2386 2366 2221 2190 2032 1986 1862 1847 1905 1951 1850 1505 1350 1437 1343 1425 1255 699 1015 1257 783 853 891 1114 1131
284 610 635 1194 1456 1312 1180 1161 1380 1361 1470 2290 2668 2539 2199 2149 2302 2344 2206 2063 2144 2107 1975 1945 1889 1900 1812 1797 1843 1556 1432 1380 1199 1325 1006 946 733 1234 629 1069 1051 1272 627
899 1045 1198 1394 1677 1621 1527 1349 1483 2083 1949 2260 2498 2249 2233 2250 2233 2207 1993 1936 2037 2064 2009 1892 1753 1763 1783 1838 1823 1627 1532 951 1380 1082 1489 1258 1002 849 570 1209 903 1047 843
1125 1139 1549 1442 1538 1557 1646 1627 2072 2401 2307 2509 2380 2075 2024 2010 2092 1925 1875 2002 2016 1947 1886 1780 1723 1668 1677 1680 1750 1744 1715 1046 681 1141 1325 1215 925 692 639 1227 502 522 1208
1102 1422 1488 1715 1840 2116 2040 2081 2363 1852 1846 2089 2068 1937 2028 2066 2052 1966 2040 1982 1902 1842 1782 1688 1688 1766 1701 1620 1632 1647 1668 1479 1200 1321 1484 1497 1199 860 510 1000 516 627 1208
1118 1420 1502 1691 1887 2441 1952 1739 2146 1836 1808 2033 1944 1948 1992 2105 2057 2058 1897 1814 1787 1762 1777 1790 2024 1927 2055 2006 1869 1824 1662 1585 1395 1480 1159 1616 1182 901 872 746 1050 1051 1180
1273 1422 1598 1766 2075 1985 2409 2040 2124 2199 2146 2078 2121 2197 2157 2117 2117 2018 1925 1901 1873 1839 1986 2124 2011 1690 1422 1522 1573 1533 1632 1417 1573 1689 1204 1583 1247 1022 1235 878 884 1153 848
1209 1531 1988 1989 1780 1555 1809 2044 2040 2013 2121 2232 2312 2277 2195 2082 1905 1893 2072 1781 1808 1925 1755 1847 1988 1591 1492 1495 1730 1465 1368 1352 1753 1810 1705 1363 1369 1263 1053 1198 758 915 969
1430 1562 1658 1727 1745 1849 1767 1692 1869 1952 1923 2213 2269 2233 2123 1622 1747 1875 1899 1668 1224 1568 1759 2035 2020 2011 1704 1702 2029 2021 1848 1629 1796 1735 1640 856 1274 1525 1403 1208 880 1353 1057
1181 1474 1438 1523 1493 1746 1344 1770 1836 1665 1393 1745 1932 2277 2076 1948 2026 1868 1727 1399 2031 2009 2013 2072 2036 1869 1674 1722 1748 1515 1455 1528 1836 1931 1679 1168 1375 1626 1592 1308 840 1092 1341
1041 1202 1516 1947 2096 1901 1840 2116 2068 1821 1605 1934 2273 2242 2271 1914 1865 1862 1859 1884 1913 1531 1939 1810 1835 1675 1887 1790 1637 1599 1588 1573 1377 1489 1413 1486 1332 1656 1636 1839 1197 1296 901
1015 1144 1329 1643 2133 2143 1833 1646 1734 1618 1722 1643 1631 2093 1920 1695 1820 1789 1919 1675 1962 1918 2195 1943 1807 2089 1888 1868 1868 1847 1764 1842 1604 1641 1513 1604 1885 1181 1594 1808 1544 1344 1079
1009 1126 1497 1768 1956 2265 2376 1646 1428 1695 1476 1635 1560 1539 1513 1406 1669 1705 2118 2085 1985 1967 1809 2423 2134 2074 1968 1842 1861 1760 1596 1644 1737 1567 1592 1224 1953 2327 1809 1498 1512 1725 1290
1119 1196 1463 1781 2075 2280 2181 2326 1964 1892 1729 1782 1735 1520 1768 1564 1724 1795 2106 2173 2556 1834 1876 2132 2126 2259 1941 1803 1694 1666 1574 1382 1277 1395 1389 1579 1341 1984 2224 1811 2007 1725 1485
1095 1093 1166 1439 1735 2089 1963 1953 1930 1957 2007 1805 1761 1995 2118 1779 1982 2000 2609 2338 1970 1845 2004 1904 2133 1738 1869 1645 1553 1129 947 788 660 837 962 1174 1419 1379 1705 2036 2006 2276 1622
1064 1067 1125 892 1216 1735 1843 1918 1913 1878 1889 1912 2453 2243 2368 2345 2412 2471 2269 2680 1802 1802 1641 1890 1725 1505 1384 1135 1099 920 784 675 576 619 673 800 743 1058 1421 1632 2051 2275 1972
1421 1357 1320 1315 1411 1677 1966 1995 2135 2347 2277 2048 2137 2727 2235 2258 2343 2449 2650 2767 1672 1797 2149 1517 1342 1292 867 751 488 400 508 539 564 436 749 1015 895 902 1109 1435 1582 1823 1599
1486 1594 1544 1537 1856 2127 2064 2191 2144 2329 2311 2330 2324 2333 2365 2514 2326 2520 2461 2116 1876 1792 1315 858 807 586 610 564 320 236 387 482 404 532 921 394 911 896 1343 1649 1705 1559 1295
1476 1553 1601 1763 2492 2270 1999 1973 2039 2193 2281 2402 2378 1976 2389 2243 2142 2211 1855 1774 1738 1329 844 764 464 441 278 561 347 61 143 296 311 426 518 84 93 122 512 1003 1516 1551 1537
1473 1539 1693 2094 2594 2462 2178 2103 1986 2211 2167 2300 2308 2357 2431 2384 2495 2052 2099 1705 1479 937 924 579 472 71 230 565 173 161 6 196 297 341 192 6 0 25 10 20 260 769 1156
1272 1502 1844 2434 2707 2413 2301 2157 2098 1988 1948 2016 2107 2203 2226 2272 2359 2224 1720 1481 1421 895 296 416 287 360 20 173 281 196 2 0 53 145 301 2 0 0 0 0 0 0 6
1066 1400 1971 2186 2610 2270 2392 2163 2262 2046 1956 2025 1938 1833 2282 2304 2106 1920 1585 1484 1208 469 377 338 185 162 152 4 173 235 212 169 2 0 0 0 0 0 0 0 0 0 0
881 1104 1476 2205 2500 2768 2370 2621 2249 2153 2143 2089 1479 1250 1359 1536 1871 1858 1543 1031 700 268 519 264 177 213 107 87 93 123 175 21 10 0 0 0 0 0 0 0 0 0 0
728 905 1268 2078 2630 2639 2222 2254 2473 2610 2342 1637 1183 911 812 588 598 659 568 583 597 445 238 149 127 150 144 198 97 74 0 0 0 0 2 0 0 0 0 0 0 0 0

GFSSE_con_mucape_024.txt.gz
CAPE
171 260 398 458 563 618 616 687 599 640 823 1215 1345 1823 2227 2210 2279 2535 2421 2358 2216 1992 2093 2208 2074 1996 1976 1927 1907 1880 1672 1832 2088 1880 1628 1593 1018 1092 749 721 805 259 1252
311 444 580 718 508 770 908 1073 1171 884 873 1354 1792 2155 1972 2062 2417 2498 2415 2244 2167 1944 2013 2059 2052 2003 1955 1819 1685 1494 1499 1658 1696 1682 1481 1230 1431 1196 878 498 782 1081 1285
455 666 717 1097 775 732 981 1140 1231 1326 1242 1237 1726 1620 1668 2116 2415 2422 2334 2241 2235 2091 1963 1899 1863 1862 1795 1822 1562 1454 1306 1385 1247 1412 943 453 846 1231 615 1090 914 1286 1248
557 715 771 1234 1209 1230 1262 1178 1352 1333 1173 1827 1933 1778 1980 2223 2408 2273 2042 2158 2203 2068 1969 1882 1798 1754 1774 1752 1653 1533 1373 1326 1193 1010 1202 281 527 935 1004 1248 1322 1160 1463
755 760 1157 1191 1415 1392 1403 1479 1628 1753 1742 1842 2029 1845 2110 2286 2257 2044 1884 2049 2108 2010 1826 1703 1676 1700 1683 1782 1759 1687 1490 1197 1272 1134 1293 652 409 501 1007 1102 1166 631 955
1024 990 1339 1538 1677 1717 1622 1772 1924 2026 1915 1814 1754 2102 2106 2061 2025 1795 1994 2042 1918 1847 1748 1678 1610 1604 1504 1447 1480 1478 1635 1240 960 1282 1568 760 700 585 1199 789 706 1063 1013
1035 1116 1555 1863 1805 1813 1624 1825 1842 1804 1793 1923 2029 1982 1949 2044 1955 2001 2033 1858 1776 1711 1724 1708 1830 1801 1801 1767 1684 1550 1572 1426 1723 1840 1761 1438 962 666 664 701 407 554 1199
916 1192 1191 1454 1772 1863 1693 1776 1882 1775 1959 2022 1926 1981 2103 2109 2012 2023 1832 1732 1720 1756 1873 2009 1926 1572 1544 1534 1681 1523 1461 1363 1666 1719 1468 1907 1280 899 721 1130 1000 887 1126
1283 1119 1274 1502 1757 1846 2035 1681 1653 1721 1831 1893 1929 1992 2104 2069 2068 1935 1862 1814 1919 1962 1960 1860 1808 1349 1191 1342 1488 1272 1354 1345 1870 1859 1397 1907 1339 1018 1187 916 1508 1120 1248
1204 1523 1786 1923 1609 1199 1434 1859 2102 2139 2070 2043 2309 2223 2145 2054 1877 1799 1922 1882 1636 1724 1837 1895 1917 1445 1368 1538 1813 1487 1583 1465 1738 1848 1810 1993 1774 1218 1275 1142 945 1128 1017
1333 1319 1666 1748 1457 1427 1501 1898 2068 2032 2150 2248 2272 2175 1897 1395 1461 1485 1785 1395 1150 1711 1830 1824 1831 1559 1565 1660 1728 1701 1646 1401 1475 1597 1680 1264 1473 1564 1147 1531 882 1172 991
1341 1443 1319 1204 1376 1533 1264 1758 1624 1506 1438 1568 1578 1878 1619 1305 1629 1662 1770 1807 1918 1895 1946 1721 1553 1618 1616 1493 1824 1850 1561 1446 1386 1451 1834 1375 1321 1669 1550 1410 1070 1391 1250
1267 1222 1193 1145 1443 1522 1324 1469 1479 1437 1321 1565 1975 1984 1572 1593 1770 1891 1760 1954 1963 1926 1497 1747 1810 1603 1746 1814 1653 1627 1565 1524 1330 1243 1678 1740 1723 1770 1870 1839 1466 1195 1250
1297 1246 1331 1533 1591 1565 1498 1401 1383 1343 1374 1269 1193 1750 1665 1703 1688 1879 1627 1827 1735 1836 1779 1772 1771 2055 1936 1855 1912 1909 1743 1742 1539 1425 1641 1694 2065 1767 1897 1860 1909 1524 1273
1219 1281 1470 1753 2236 2148 2071 1373 1184 1308 1178 1107 1123 1213 1331 1514 1758 1918 1908 1467 1527 1548 1788 1766 1814 1897 2074 1855 1880 1929 1861 1818 1860 1673 1497 1783 1967 2283 1862 1901 1905 1800 1623
971 1089 1333 1680 1914 2057 2061 1998 1544 1345 1101 1184 1038 1108 1702 1767 1855 2134 1587 1704 1521 1588 1906 1902 1849 1951 1983 1912 1790 1617 1797 1653 1520 1641 1562 1824 1685 1889 2483 2174 2139 1894 1828
1095 1055 1248 1664 1823 2195 2143 2158 1959 1355 1280 1255 1498 1877 2051 2083 1891 2345 1588 1416 1365 2079 2169 1783 1820 1817 1621 1401 1342 1405 1282 1013 726 723 688 773 1492 1819 1975 2313 2473 2004 2352
1188 1272 1326 1208 1494 2048 2092 2083 1840 1609 1739 1714 1848 1699 2060 1928 2458 2283 2777 1313 1337 2020 1882 1689 1737 739 391 302 286 392 413 289 132 204 237 349 126 420 1757 2251 2030 1836 1650
1290 1370 1454 1342 1237 1743 2128 2189 2261 2269 2751 2123 2655 2192 1855 1935 1749 1887 1595 1651 2094 1860 1681 1453 646 611 160 30 0 0 8 133 158 214 484 634 479 465 357 2050 1726 1545 1631
1486 1525 1644 1459 1695 2005 2031 2548 2994 3503 3455 2201 2227 2837 2084 1864 1870 1938 1525 1678 1641 2106 1747 894 1049 276 17 34 19 0 79 159 273 459 621 404 899 850 930 1201 1204 1368 1590
1671 1803 1924 1965 2225 2528 2473 2303 2119 2108 3264 2353 2467 2438 2213 2114 1884 2095 1595 1573 1515 1785 1181 1074 384 0 0 57 46 2 8 136 190 362 520 258 324 478 778 1032 1303 1002 1527
1812 1974 2201 2278 2513 2836 2483 2427 2064 2036 1995 2024 2311 2500 2568 2499 2323 1871 1990 1757 1742 789 1353 810 90 0 0 92 13 1 5 194 182 245 174 14 33 75 147 356 1013 1333 1380
1810 2103 2288 2661 2658 2981 2913 2585 2732 2612 2649 2428 2263 2309 2241 2539 2405 2318 1981 1847 1965 1398 266 155 39 60 0 0 162 36 10 11 3 211 301 3 0 0 0 19 17 0 0
1621 2042 2424 2748 3100 2969 3379 3286 3002 2295 1828 1365 1506 1163 1342 2095 2199 2247 2302 2087 2134 638 107 23 19 49 87 0 8 51 161 302 44 41 26 5 0 0 0 0 0 0 0
1429 1657 2196 2874 3793 3608 3615 3715 2949 2855 1999 1915 1888 1970 2043 2164 2411 1867 2332 1993 1571 166 229 252 99 50 0 28 18 8 40 16 16 4 5 17 4 0 0 0 0 0 0
1087 1340 1738 2979 4246 3922 3433 3357 3545 3479 2723 1993 2365 2131 1169 930 1700 2250 2126 1843 870 105 558 275 96 55 133 126 57 50 14 6 14 15 14 23 18 5 0 0 0 0 0

GFSSE_con_mucape_030.txt.gz
CAPE
147 159 263 545 586 869 1086 961 1685 2271 2462 2643 2802 2868 3062 3043 2968 2860 2716 2769 2751 2680 2544 2137 1908 1748 1670 1651 1695 1656 2001 1856 1578 1432 1172 1242 991 404 327 598 696 1195 1796
158 234 538 658 796 745 834 956 1492 2089 2152 2679 2748 2759 2916 2800 2725 2746 2619 2566 2591 2406 1915 1873 1737 1683 1575 1518 1451 1418 1420 1529 1611 1383 1272 1161 760 641 948 1603 1604 1428 1659
255 342 568 1114 1205 909 920 1009 1533 1754 2239 2498 2620 2790 2722 2645 2671 2666 2459 2232 2229 2045 1823 1794 1746 1717 1614 1537 1357 1372 1252 1134 1190 1073 1231 1279 393 904 1019 1489 1607 1527 1606
215 337 311 1435 1352 1262 1491 1623 1704 1570 1698 2333 2548 2671 2647 2344 2226 1939 2005 1958 1887 1697 1644 1654 1639 1632 1665 1529 1431 1262 1012 1027 1155 1163 1313 1152 377 1175 1028 1362 1207 1618 1527
214 362 912 1300 1381 1627 1940 2113 2108 1881 1995 2327 2415 2161 2091 1981 1699 1904 1920 1809 1643 1558 1531 1536 1528 1456 1351 1298 1263 1400 1196 982 1032 1329 1463 500 270 1148 1301 1243 965 1109 1345
356 385 1170 1410 1424 1639 2191 2106 2054 2137 1906 2115 2109 1990 1979 1766 1639 1889 1699 1616 1497 1584 1578 1653 1611 1485 1395 1256 1212 1163 1196 1190 877 1727 1043 674 650 1185 1225 1013 1497 975 1266
609 448 930 1848 2014 2046 2376 2294 2278 2150 1640 2147 1915 1822 1859 1718 1761 1694 1468 1388 1505 1737 1823 1932 1548 1232 1330 1292 1230 1165 1320 1401 1724 1633 1708 322 1195 1622 939 1174 1040 1393 1513
851 741 918 1886 2226 2250 2387 2455 2280 1915 1630 1803 1796 1757 1837 1706 1697 1369 1259 1341 1593 1760 1771 1695 1363 1069 1025 1124 1160 1282 1484 1362 1615 1490 1607 484 1222 1855 242 326 1131 1244 1062
941 1212 1525 1512 1947 2163 2421 2040 1818 1719 1791 1816 1693 1772 1845 1680 1578 1331 1143 1433 1360 1529 1581 1542 1372 1087 1093 1203 1340 1216 1737 1846 1407 932 1638 810 1517 1432 1325 872 1009 1204 1165
834 1323 1903 2006 1761 1832 1604 1702 1695 1773 1740 1574 1616 1689 1873 1722 1566 1372 1719 1679 1275 1231 1395 1553 1619 1467 1511 1919 2066 2121 2182 2312 474 307 1407 1042 1780 1271 971 1457 1067 1377 1323
821 875 981 1662 2138 1669 1382 1298 1688 1648 1644 1591 1842 1983 2218 1427 1569 1785 2108 1604 1255 1822 1794 1762 2066 2344 2452 2562 2928 2609 1605 1575 975 690 1448 1664 1992 1833 1457 982 1313 1162 1120
864 959 857 883 1075 1565 774 1776 2083 1566 1432 1729 1995 2243 1822 1256 1824 2017 2424 2507 2005 1720 2113 2198 2540 2012 1736 1706 1490 2277 1925 1366 431 536 1302 2167 2296 1771 1791 1390 1232 1220 1075
1534 1243 1315 1437 1450 1196 1858 1934 1878 1832 1776 1927 2670 2927 3002 2622 1939 1554 2067 1908 2395 2052 1414 2036 1212 1378 2189 1962 1736 1431 1182 1170 815 171 1333 1969 2624 2029 1749 1905 1311 1273 1074
1316 1290 1285 1805 1878 1940 1665 1555 1931 1794 1900 1861 2199 2947 3172 3130 2607 3027 2859 1592 2747 2454 1678 747 1546 2294 2176 2574 2090 1997 1574 1232 1011 1299 1441 2567 2627 2311 1965 2083 1971 1335 1721
1178 1237 1678 2171 2875 3435 2834 1985 1862 2317 1399 1764 2085 2535 2220 2718 1909 2288 2004 2733 2758 2280 2382 1453 1194 2837 1905 2257 2027 2069 1687 1819 1686 1486 1709 1085 2626 2673 2479 2314 2399 2100 1539
1146 1070 1687 1817 2700 2943 3149 3563 3916 2941 1062 1773 1136 2274 3081 2887 1633 1927 3186 2777 1433 1752 1855 2594 2801 2787 3004 2525 2331 2172 1810 2192 1676 1411 2035 2193 2615 2676 2964 2792 2496 2504 2202
1293 1240 1670 1711 2299 2691 3101 3190 3226 2791 1290 2050 1683 2630 3196 3573 3493 3166 2937 3149 2006 1920 2926 1897 2193 1916 2363 2272 1434 2379 1761 1952 1421 668 447 403 2090 2921 2903 2858 2618 2833 2463
1270 1852 2089 1055 2046 2685 3112 3458 2359 1811 2561 1713 2242 2737 1641 3096 3003 3607 3362 2881 3012 3249 1601 1724 2320 1706 1305 618 212 649 512 265 273 163 247 573 618 863 2334 2528 2980 2614 2448
1407 2190 1769 2126 1926 2619 3077 2959 2941 2771 3135 3468 1488 2751 3140 2289 3395 2917 2713 2316 2430 2169 2300 1732 1967 1301 702 197 22 101 442 147 344 86 420 539 650 605 1272 2457 2633 2650 2056
1205 2003 2263 2172 3089 2948 2754 3288 3056 2535 2485 2752 3217 2631 2886 2923 2521 2395 2788 2592 2373 2519 2218 1732 1053 1218 439 589 19 13 71 177 625 814 236 433 698 594 1084 1476 1557 1560 1534
1267 2052 2369 2902 3377 3505 3220 2415 2520 2766 2739 2677 2513 3755 2874 2926 2761 2678 3406 2352 1950 2434 2115 1584 1427 578 491 1103 417 449 858 346 347 433 96 312 420 484 898 1656 1443 1476 1652
1482 1883 2764 2880 3996 3303 2854 2711 2145 2248 2045 2490 2444 2853 2394 2965 2838 3312 3379 2272 1986 1489 1864 1876 1090 646 133 1018 349 192 164 559 27 100 387 21 11 144 808 783 861 984 1606
1560 2143 2590 2994 3736 2946 3385 2580 3036 3573 4053 2157 2319 2112 2947 2876 3091 3065 2566 2768 2263 2181 2112 1714 1027 481 350 937 234 419 496 220 378 658 734 22 18 22 155 127 2 23 442
1513 2305 2671 3142 3347 3427 3101 3415 3232 2366 2712 2459 2575 1955 3036 2992 2649 2970 3293 2909 2203 2454 1871 1454 1106 564 490 197 791 529 303 131 527 157 352 120 4 0 0 3 0 0 0
1427 1955 2745 3230 3471 3509 3227 3631 3702 2999 1657 2730 2307 3420 3093 3251 2138 2905 2583 2789 3090 2015 1567 927 1086 675 663 479 705 570 693 447 506 54 126 49 114 26 6 0 0 0 0
1244 1809 2366 3309 3535 3685 3769 3511 3897 3118 2673 2688 3070 3088 2523 2300 2194 2855 2316 2961 2791 2010 1602 673 779 511 450 672 484 635 321 370 133 470 171 50 38 110 56 20 0 2 0

GFSSE_con_mucape_033.txt.gz
CAPE
75 108 302 377 599 1199 1239 2078 2648 2792 2851 2961 3087 3031 2882 2779 2700 2846 2907 2789 2722 2604 1901 1815 1736 1637 1632 1664 1701 1989 1924 1548 1377 1158 1200 808 391 587 708 885 1609 1424 1276
5 149 450 790 866 1223 1674 2077 2419 2746 2667 2822 3024 3060 2710 2497 2287 2577 2780 2500 2168 2204 1809 1720 1650 1560 1548 1503 1508 1518 1750 1656 1474 1306 1098 630 357 1211 1698 1589 1622 1435 971
62 176 508 1072 1119 1013 1444 1961 2190 2422 2348 2736 2936 2996 2886 2306 2502 2770 2336 1995 1906 1778 1750 1710 1699 1570 1518 1422 1371 1319 1214 1423 1321 1140 1492 307 555 1281 1477 1794 1730 1384 830
142 270 453 1290 1462 978 1230 1905 2133 1761 1854 2571 2970 2939 2660 2079 2415 2046 1939 1876 1705 1654 1603 1563 1543 1566 1483 1461 1386 1182 1097 1063 1126 1123 1240 403 428 1430 1637 1610 1787 1218 1026
255 323 785 1378 1916 1306 1245 1689 1978 2092 1714 2058 2539 2530 2142 1762 1877 1890 1831 1655 1576 1553 1525 1506 1444 1334 1288 1286 1318 1414 1306 1193 1319 1572 1109 682 737 1275 1245 1402 1627 1635 1321
246 754 1550 1559 1649 1824 1632 1733 1477 1584 1660 2216 2606 2230 1802 1619 1785 1668 1618 1489 1486 1635 1649 1704 1548 1456 1390 1283 1283 1279 1383 1532 1366 1112 235 951 805 1208 837 1368 1466 1439 1475
350 916 1217 2108 1911 2289 1857 1795 1853 1570 1506 2361 2443 1876 1784 1661 1749 1518 1385 1349 1532 1720 1844 1746 1428 1242 1384 1444 1435 1356 1414 1443 1360 1088 590 842 979 1992 1585 1543 1335 1474 1430
381 719 1083 1959 2070 2147 1900 1965 2065 1622 1609 2215 2334 2016 2228 1999 1876 1800 1263 1354 1547 1708 1654 1674 1449 1256 1283 1426 1503 1490 1360 1433 561 622 428 1105 2008 943 1127 1046 1539 1547 1575
418 625 1140 1508 1815 2222 2725 2127 1976 1715 1674 1881 1996 2095 2129 1790 1587 1483 1653 1520 1430 1521 1596 1610 1790 1608 1604 1950 2260 1583 1986 1246 32 177 590 661 2417 680 405 1114 1326 892 1468
713 863 1118 1458 1715 1779 1849 2075 1720 1881 1801 1642 1613 1661 1838 1728 1637 1494 1892 1979 1336 1278 1470 1717 2335 2468 1891 1899 2178 1990 1572 397 431 3 490 841 2187 1811 1254 914 1353 1169 1371
903 1052 1131 1372 1485 1304 1235 1448 2093 1879 2010 1633 1593 1919 2010 1665 1311 1411 1788 1983 1518 1514 1835 1894 2246 2465 1917 1411 2252 2454 1879 625 226 453 730 1303 2005 1476 1453 1543 1339 1320 1492
850 1074 1173 1079 992 977 1046 1180 1260 1286 1366 1302 1470 1453 1702 1387 1011 1105 1451 1755 1740 1948 1190 2558 2207 1997 1508 1155 1078 1446 1082 804 426 30 642 723 1745 1937 1301 1302 1439 1052 1285
632 888 1199 1302 1079 700 578 838 1149 1193 1118 1045 1165 1313 1329 1409 1521 1250 731 825 1037 1020 1283 1636 1334 896 1608 1240 1464 1413 916 680 508 307 577 1242 1774 2242 2094 1319 1141 1313 951
711 586 704 636 1191 609 696 704 1199 1195 1047 962 1150 1707 1716 1614 1284 1089 1152 873 1179 1548 1162 727 1322 1163 1718 1792 1415 1589 892 819 743 701 697 1914 2455 2107 2409 1930 1298 1289 1095
715 828 718 539 828 1090 1082 737 1196 1271 1252 1181 1521 1627 1041 1216 929 1621 1423 1665 1234 1675 1279 971 915 1353 1721 1500 1270 1329 968 1022 779 836 761 2216 2457 2272 2368 2438 2275 1542 1641
983 800 1012 760 1171 996 1442 1615 2099 1402 1184 1242 1430 1342 1248 1379 1042 1443 1699 1865 1327 950 1255 1377 1421 1450 1738 1262 1447 1519 1104 1085 1139 1204 1032 1502 2196 2218 2310 2401 2616 2480 1851
468 550 1132 1117 1597 1524 1428 1806 1404 1487 869 875 994 1634 1395 1475 1261 1293 1303 1344 1641 1430 1472 1026 1143 1300 1230 945 111 1458 1198 893 890 1345 1498 1302 1693 2493 2263 2913 2743 2795 2811
474 1084 1103 1125 993 1053 1349 1962 1229 992 812 977 1255 1219 1753 1932 1590 1424 1535 1464 1893 1266 1039 892 1059 489 221 35 1 0 426 0 0 13 4 42 951 1454 2279 2297 2103 2473 2320
490 920 807 1155 1004 1038 1552 2101 1407 1255 1576 1470 1335 1392 1241 1983 1899 1914 1741 1518 1633 1429 1340 1085 847 419 137 0 0 0 0 0 5 23 32 103 377 939 1189 1806 1594 2014 1714
532 931 926 940 1275 1283 1842 1675 1704 1456 1703 1941 1381 1041 2043 1594 2092 1488 1687 1835 1310 1349 953 875 686 333 4 4 0 0 0 0 0 66 147 178 515 626 958 1374 1039 1159 1804
850 1059 864 1196 1696 1488 1678 1757 1889 1875 1571 1549 1767 1737 1648 1500 1454 1544 1670 1700 1532 1289 739 581 192 0 0 15 0 0 15 3 1 57 30 25 57 614 806 804 727 1270 1157
747 1172 875 1182 2161 1541 1668 1616 1570 1532 1449 1310 1336 2003 1730 1677 1624 1498 1538 1394 1221 969 685 327 121 1 2 5 0 0 1 12 21 25 30 4 10 233 183 80 393 593 971
582 1114 1176 1483 2079 1817 2015 1671 1406 1598 1518 1615 1844 1840 1670 1623 1855 1948 1881 1181 1117 896 646 378 43 0 0 0 0 0 6 17 51 138 24 6 0 0 0 0 0 163 887
724 1166 1233 1657 2146 1906 1777 1539 1434 1131 1715 1659 1684 1688 1701 1789 1803 1640 1514 1010 1327 984 766 158 0 2 0 3 2 0 0 5 20 63 33 5 0 0 0 0 0 22 252
740 1035 1576 1469 2343 1517 1731 1800 1071 1346 1354 1574 1150 1574 1681 1753 1731 1485 1733 1336 1122 803 387 16 1 23 41 59 27 98 16 0 0 0 12 17 19 1 0 0 0 0 0
816 1233 1623 1571 1813 1922 1267 1571 2090 2097 1104 676 1475 1350 1609 1103 1533 1554 1453 1354 1010 441 365 37 56 6 44 50 18 4 0 5 0 0 0 0 2 9 13 3 0 0 0

GFSSE_con_mucape_036.txt.gz
CAPE
53 112 484 720 669 1406 2077 2553 2559 2934 3091 3109 3053 2718 2399 2248 2437 2819 2872 2468 2219 2061 1963 1876 1812 1818 1701 1797 1830 1963 1597 1362 1298 1268 684 642 1082 1179 1511 1615 1781 974 1364
10 117 687 1181 1322 1712 2329 2441 2592 2673 2768 2858 2802 2439 2094 1928 2080 2724 2553 1973 2022 1959 1869 1817 1780 1759 1677 1690 1745 1923 1630 1407 1367 1125 626 284 1233 1319 1163 1670 1464 1054 1768
38 134 446 1219 1437 1678 2098 2458 2298 2172 2444 2840 2751 2532 2231 2111 2205 2167 2052 1951 1854 1856 1832 1855 1807 1676 1635 1573 1599 1461 1475 1406 1319 1061 577 433 794 1288 1604 1603 1423 1057 1522
55 190 478 1288 1756 1479 1947 2415 2515 2035 2137 2643 2732 2444 2151 2143 2097 2021 1906 1759 1693 1683 1664 1658 1621 1638 1579 1597 1505 1339 1274 1183 1188 938 624 537 940 1432 1580 1415 855 646 1079
163 327 611 1530 1727 1439 1537 2034 2329 2288 2025 2135 2122 1917 1920 2024 1984 1912 1738 1653 1629 1594 1655 1656 1525 1408 1387 1370 1424 1548 1382 1361 1615 1298 962 417 785 1279 1280 1547 1187 1529 1398
227 592 1347 1478 1206 1326 1408 1582 1695 1850 1863 2084 2062 1871 1713 1924 1806 1734 1626 1584 1697 1714 1859 1729 1588 1582 1482 1351 1407 1470 1593 2338 855 949 716 1081 1071 1014 1202 1485 1388 1334 1213
458 946 1190 2107 2185 1837 1471 1515 1571 1617 1866 2054 1989 1843 1702 1848 1691 1594 1492 1564 1708 1852 1936 1622 1399 1386 1436 1507 1564 1582 2346 1781 953 497 715 742 997 1841 1820 1503 1248 1388 793
737 1099 1380 2098 2478 2268 1577 1782 1657 1517 1907 1934 1932 1908 1763 1829 1653 1427 1381 1451 1650 1780 1731 1728 1394 1351 1361 1530 1801 1805 1660 828 702 545 709 832 1957 2079 1644 1551 1349 1477 686
732 1064 1389 1519 1706 1901 2409 1942 1804 1587 1822 1842 1854 1911 1855 1797 1698 1424 1353 1499 1539 1624 1677 1697 1776 1733 1624 1927 2300 2064 1073 151 45 90 604 1026 1842 1822 1217 1678 1464 1627 1340
545 957 1317 1507 1631 1764 1965 2090 1848 1666 1790 1847 1830 1864 1958 1810 1710 1561 1930 1830 1565 1434 1511 1752 1940 1941 1897 1622 2210 1744 628 679 166 32 403 828 2132 867 1002 1509 1112 1385 1394
567 892 1331 1492 1634 1871 1841 1682 2011 1801 1839 1803 1603 1755 2193 1685 1398 1582 1606 1975 1902 1425 1951 1810 1988 2167 1529 785 1766 1733 919 420 177 491 793 1247 2222 1418 890 1400 1275 1436 1504
628 800 1092 1426 1400 1309 1345 1260 1514 1448 1576 1393 1333 1341 1717 1399 1225 1371 1543 2159 1705 1759 729 2154 1876 1716 1806 836 1303 1811 734 711 416 261 656 1589 2111 1641 1913 1334 1767 1567 1553
679 900 1016 1172 1104 880 875 1145 1226 1247 1210 1017 917 999 1006 1254 1009 1396 978 1172 911 1663 1098 1545 1414 1006 1347 1195 1106 939 756 624 369 121 547 1868 2234 1832 1415 1709 1629 1384 1699
822 828 935 852 893 645 640 863 768 814 861 681 560 911 1183 1274 1135 1187 722 860 991 1473 1002 489 1082 977 1407 1506 1312 1236 746 640 492 331 574 1624 1854 2220 2161 1515 1497 1595 1159
828 771 845 841 628 611 486 493 598 932 831 670 684 792 1267 1204 1177 1008 975 1053 1205 1172 970 854 886 1102 1430 1313 1292 1095 972 890 584 673 656 1891 2378 2897 2399 2206 1665 1498 1350
674 587 847 947 799 554 511 446 589 1011 1006 911 881 987 1197 946 1026 1352 1274 1231 1191 1357 982 1123 1200 1307 1296 1137 1008 1267 1193 916 965 661 748 1073 2717 2852 2794 2800 2514 2008 1790
581 471 636 628 713 789 667 678 759 1350 1242 1189 1054 1102 1226 1299 803 1283 980 1008 1240 1139 1225 1030 958 747 201 66 61 416 1188 998 1002 831 927 847 1477 2474 2244 2503 2636 2840 2411
499 673 724 564 642 802 857 1113 1081 1050 771 760 1072 1175 1111 1076 1053 950 946 954 1453 989 893 767 765 331 153 82 1 0 0 620 493 810 1179 998 896 1253 1931 1987 1958 2233 2470
630 664 817 588 857 861 1096 1165 923 817 593 916 965 1085 1080 1474 1229 1301 1077 1145 1500 1294 1128 832 555 348 46 2 0 0 0 2 15 15 282 75 111 1076 1097 1754 1879 1929 1629
437 585 791 705 792 1082 859 1182 975 779 882 1654 1332 988 1150 1713 1645 1331 1259 1552 1238 1270 1147 838 735 473 0 0 0 0 1 2 15 35 256 523 739 985 1124 1103 1062 994 1743
380 706 796 788 774 503 966 1098 1224 918 914 1221 1267 924 1081 1278 1410 1393 1007 1377 1332 1094 1127 535 272 15 0 0 0 0 12 0 0 68 76 380 608 737 854 809 949 1191 1467
320 657 756 789 725 651 849 957 1045 1046 1174 1097 1327 1305 1276 1261 1099 1461 1077 1161 1050 1193 924 419 85 0 0 0 0 0 0 3 17 21 32 26 546 488 373 472 528 733 622
283 585 546 670 924 839 1017 1144 1092 1122 1274 1296 1109 1394 1533 1212 1270 1240 1050 1031 1095 759 615 314 143 0 0 0 0 0 0 0 9 18 28 132 160 49 0 54 518 679 527
367 509 524 697 1251 1080 1096 1128 1040 1077 1140 959 968 1313 1453 1318 1358 1411 1421 1170 821 779 660 335 90 0 0 6 7 0 0 0 30 7 14 5 0 0 0 0 0 665 107
323 565 562 598 1390 1271 1245 1093 1004 879 842 1174 1257 1395 1464 1407 1332 1413 1217 953 969 774 525 461 3 0 0 0 23 19 16 12 0 12 44 1 0 0 0 0 0 504 58
266 560 699 738 1158 1326 1369 1182 1083 1014 830 874 1265 1443 1348 1401 1399 1421 1333 1060 765 567 488 9 0 0 0 0 0 11 0 0 4 14 0 0 0 0 0 0 0 0 5